Location: Gull Harbor
(47.1000°N, 122.9000°W)
Time: 12:37:07
(UTC-07:00)

BlueWalker 3 - Pass Details

Date: 08 February 2023
Orbit: 497 x 514 km, 53.2° (Epoch: 01 April)

Event Time Altitude Azimuth Distance (km) Brightness Sun altitude
Rises 18:20:17 0° 297° (WNW) 2,605 6.5 -9.9°
Reaches altitude 10° 18:22:31 10° 303° (WNW) 1,723 5.4 -10.2°
Maximum altitude 18:26:19 50° 20° (NNE) 659 2.3 -10.9°
Enters shadow 18:29:10 17° 92° (E) 1,368 3.5 -11.3°
